Content
SEND FEEDBACK

Daily
Averages
Monthly
Summary
India

CHENNAI, INDIA


Home > Asia > India
Elevation: 52 feet     Latitude: 13 00N     Longitude: 080 11E

WEATHER
 
SELECT A DAY
Number of Records: 202,665;   Date Range: 7/1/96 - 7/20/14
 
SHARE

PRINT THIS DATA

[ ← Previous Day ]
WEATHER ALMANAC - MAY 22, 2013
[ Next Day → ]
[ °C ]   °F
Weather ElementAverageHighLow
Temperature90.3 °F105.8 °F (1:40 pm)82.4 °F (4:40 am)
Dewpoint74.6 °F80 °F (11:30 pm)68 °F (1:10 pm)
Humidity60.5 %74 % (12:40 am)31 % (1:10 pm)
Barometer29.64 in29.73 in (8:30 am)29.53 in (3:40 pm)
Wind Speed8.7 mph17.3 mph (5:40 pm)
Wind Gust28.8 mph (5:40 pm)
Weather ElementAverage
Visibility4 mi
Wind DirectionSSW (193.2 °)

Weather ElementTotal
Precipitation---
Cooling Degree Days29.1 (Base 65)
Growing Degree Days44.1 (Base 50)
Averaged from 53 records on May 22, 2013
WEATHER CONDITIONS BREAKOUT
WIND DIRECTION BREAKOUT
WEATHER BY HOUR - MAY 22, 2013
[ °C ]   °F
Local TimeTemperatureDewpointHumidityBarometerVisibilityWind DirectionWind SpeedGust SpeedPrecipitationEventsConditions
12:40 AM84.2 °F75.2 °F74 %29.71 in3.7 miSouth (180°)5.8 mphPartly Cloudy
1:10 AM84.2 °F75.2 °F74 %29.68 in3.7 miSouth (170°)6.9 mphPartly Cloudy
1:40 AM84.2 °F75.2 °F74 %29.68 in3.7 miSouth (180°)6.9 mphPartly Cloudy
2:10 AM84.2 °F75.2 °F74 %29.65 in3.7 miSouth (190°)9.2 mphPartly Cloudy
2:30 AM85.0 °F77.0 °F72 %29.69 in2.0 miSSE (160°)4.6 mphClear
2:40 AM84.2 °F75.2 °F74 %29.65 in3.7 miSouth (190°)8.1 mphPartly Cloudy
3:10 AM84.2 °F73.4 °F70 %29.65 in3.7 miSouth (190°)9.2 mphPartly Cloudy
3:40 AM84.2 °F73.4 °F70 %29.65 in3.7 miSSW (200°)10.4 mphPartly Cloudy
4:10 AM84.2 °F73.4 °F70 %29.65 in3.7 miSSW (210°)10.4 mphPartly Cloudy
4:40 AM82.4 °F73.4 °F74 %29.65 in3.7 miSSW (210°)8.1 mphPartly Cloudy
5:10 AM82.4 °F73.4 °F74 %29.65 in3.7 miSSW (210°)8.1 mphPartly Cloudy
5:30 AM83.0 °F75.0 °F72 %29.70 in2.0 miSouth (180°)2.3 mphClear
5:40 AM82.4 °F73.4 °F74 %29.65 in3.7 miSouth (190°)8.1 mphPartly Cloudy
6:40 AM82.4 °F73.4 °F74 %29.68 in3.1 miSSW (200°)9.2 mphHaze
7:10 AM84.2 °F73.4 °F70 %29.68 in3.1 miSSW (200°)9.2 mphHaze
7:40 AM84.2 °F73.4 °F70 %29.68 in3.1 miSouth (190°)9.2 mphHaze
8:30 AM89.0 °F76.0 °F59 %29.73 in2.0 miSSW (200°)2.3 mphClear
8:40 AM87.8 °F73.4 °F62 %29.71 in3.7 miSSW (200°)9.2 mphPartly Cloudy
9:10 AM89.6 °F73.4 °F59 %29.71 in3.7 miSW (220°)10.4 mphPartly Cloudy
9:40 AM91.4 °F73.4 °F55 %29.68 in3.7 miSSW (210°)11.5 mph
10:10 AM93.2 °F73.4 °F52 %29.68 in5.0 miWSW (240°)9.2 mph
10:40 AM95.0 °F71.6 °F47 %29.68 in5.0 miWSW (250°)8.1 mph
11:10 AM96.8 °F69.8 °F41 %29.65 in5.0 miWSW (240°)10.4 mph
11:30 AM101.0 °F74.0 °F32 %29.68 in6.0 miWest (270°)3.5 mph
11:40 AM98.6 °F69.8 °F39 %29.65 in5.0 miWest (270°)9.2 mph
12:10 PM100.4 °F69.8 °F37 %29.62 in5.0 miWest (280°)8.1 mph
12:40 PM102.2 °F69.8 °F35 %29.62 in5.0 miWNW (300°)6.9 mph
1:10 PM104.0 °F68.0 °F31 %29.59 in5.0 miNW (310°)9.2 mph
1:40 PM105.8 °F71.6 °F33 %29.59 in5.0 miSE (140°)5.8 mph
2:10 PM100.4 °F73.4 °F42 %29.56 in5.0 miSE (140°)8.1 mph19.6 mph
2:30 PM101.0 °F76.0 °F36 %29.61 in6.0 miSSE (160°)6.9 mph
2:40 PM98.6 °F71.6 °F42 %29.56 in5.0 miSE (140°)8.1 mph19.6 mph
3:10 PM96.8 °F71.6 °F44 %29.56 inSSE (150°)8.1 mph19.6 mph
3:40 PM95.0 °F73.4 °F49 %29.53 in5.0 miSSE (150°)12.7 mph24.2 mph
4:10 PM95.0 °F73.4 °F49 %29.53 in5.0 miSSE (150°)9.2 mph20.7 mph
4:40 PM93.2 °F75.2 °F56 %29.53 in5.0 miSSE (150°)11.5 mph23.0 mph
5:10 PM91.4 °F75.2 °F59 %29.56 in5.0 miSSE (160°)11.5 mph23.0 mph
5:30 PM92.0 °F79.0 °F58 %29.60 in6.0 miSouth (180°)10.4 mphScattered Clouds
5:40 PM91.4 °F77.0 °F63 %29.56 in4.3 miSSE (160°)17.3 mph28.8 mphPartly Cloudy
6:10 PM89.6 °F77.0 °F66 %29.59 in3.7 miSSE (150°)12.7 mph24.2 mphScattered Clouds
6:40 PM87.8 °F77.0 °F70 %29.59 in3.7 miSouth (170°)11.5 mph23.0 mphScattered Clouds
7:10 PM87.8 °F77.0 °F70 %29.62 in3.7 miSouth (170°)9.2 mph20.7 mphScattered Clouds
7:40 PM89.6 °F78.8 °F70 %29.62 in3.7 miSSE (160°)10.4 mph
8:10 PM89.6 °F77.0 °F66 %29.65 in3.7 miSouth (170°)8.1 mph
8:30 PM89.0 °F79.0 °F65 %29.68 in2.0 miSouth (180°)4.6 mphClear
8:40 PM89.6 °F77.0 °F66 %29.65 in3.7 miSouth (190°)11.5 mph
9:10 PM87.8 °F77.0 °F70 %29.68 in3.7 miSouth (180°)13.8 mph
9:40 PM87.8 °F77.0 °F70 %29.68 in3.7 miSouth (190°)11.5 mphScattered Clouds
10:10 PM87.8 °F77.0 °F70 %29.68 in3.7 miSSW (200°)9.2 mphScattered Clouds
10:40 PM87.8 °F77.0 °F70 %29.68 in3.7 miSouth (180°)6.9 mphScattered Clouds
11:10 PM87.8 °F77.0 °F70 %29.68 in3.7 miSSW (200°)6.9 mphPartly Cloudy
11:30 PM88.0 °F80.0 °F72 %29.70 in2.0 miSouth (180°)3.5 mphClear
11:40 PM87.8 °F77.0 °F70 %29.65 in3.7 miSSW (200°)10.4 mphPartly Cloudy
Hourly data recorded from VOMM, located miles away from Chennai, India







STORIES FROM OUR PARTNERS